Weather in Staraya Sinyava

Ukraine / Khmelnitsky District     49˚35′45″N   27˚37′23″E
temp.,
°C
wind,
m/s
gust,
m/s
humid.,
%
clouds,
%
prec.,
mm/h
press.,
hPa
HPBL,
m
1 december, tue
tue123:00−4˚n11820 0.0 102921
02:00−4˚n12850 0.0 102821
05:00−4˚nne12900 0.0 102821
08:00−5˚ene22940 0.0 102842
11:00−2˚ene23730 0.0 1029351
14:00ne34650 0.0 1027521
17:00−3˚ne34810 0.0 102791
20:00−4˚ne38830 0.0 1028240
2 december, wed
wed223:00−4˚ne359014 0.0 1028175
02:00−4˚ne249548 0.1 1028174
05:00−3˚ne259882 0.1 1027160
08:00−3˚ne239888 0.1 1027102
11:00−1˚ene238684 0.0 1027295
14:00e228284 0.1 1025442
17:00−1˚ese2385100 0.0 1025156
20:00−1˚ese3587100 0.1 1025236
3 december, thu
thu323:00−2˚se249295 0.0 1024145
02:00−3˚se349689 0.0 1024105
05:00−3˚se35944 0.0 1023126
08:00−3˚se489148 0.0 1023232
11:00sse58763 0.0 1023515
14:00+1˚sse587610 0.0 1021604
17:00sse6108271 0.0 1020650
20:00+1˚sse5128786 0.0 1020743
4 december, fri
fri423:00+2˚se61494100 0.0 1019533
02:00+3˚sse71594100 0.0 1018571
05:00+3˚sse81788100 0.0 1016600
08:00+4˚sse8169099 0.0 1016666
11:00+5˚se91784100 0.0 1016694
14:00+6˚se91781100 0.0 1015744
17:00+6˚se9168395 0.0 1015785
20:00+6˚sse8168697 0.0 1016719
5 december, sat
sat523:00+6˚sse81687100 0.0 1017759
02:00+6˚sse81588100 0.0 1017740
05:00+6˚sse8148993 0.0 1018729
08:00+6˚sse8148897 0.0 1018669
11:00+7˚sse9148396 0.0 1019762
14:00+7˚sse8138498 0.0 1019720
17:00+6˚sse81487100 0.0 1019633
20:00+6˚sse9148799 0.0 1020651